User: anonymous   Login
Location: La Pernelle
(49.6188°N, 1.2999°W)
Time: 06:44:03
(UTC+00:00)
Language:

NOSS 3-2 (A) - Orbit

View from above orbital plane
View from above orbital plane
View from above satellite
View from above satellite

Ground track
Ground track

The orbit data is extracted from the following two-line orbital elements,

1 28095U 03054A   21260.01729004 0.00000000  00000-0  00000-0 0    03
2 28095  63.4137 302.7342 0445538   0.2365 359.7635 13.41406361    03
Epoch (UTC): 17 September 2021 00:24:53
Eccentricity: 0.0445538
inclination: 63.4137°
perigee height: 770 km
apogee height: 1437 km
right ascension of ascending node: 302.7342°
argument of perigee: 0.2365°
revolutions per day: 13.41406361
mean anomaly at epoch: 359.7635°
orbit number at epoch: 0

The dashed part of the orbit path shows where the satellite is in the earth's shadow,  

DLR